Regional Weather Roundup
Issued by NWS Charleston, SC

Current Version | Previous Version | Text Only | Print | Product List | Glossary On
Versions: 1 2 3 4 5 6 7 8 9 10 11 12 13 14 15 16 17 18 19 20 21 22 23 24 25 26 27 28 29 30 31 32 33 34 35 36 37 38 39 40 41 42 43 44 45 46 47 48 49 50
000 ASUS42 KCHS 221325 RWRCHS REGIONAL WEATHER ROUNDUP NATIONAL WEATHER SERVICE CHARLESTON SC 900 AM EDT FRI AUG 22 2014 NOTE: "FAIR" INDICATES FEW OR NO CLOUDS BELOW 12,000 FEET WITH NO SIGNIFICANT WEATHER AND/OR OBSTRUCTIONS TO VISIBILITY. NOT ALL STATIONS ARE QUALITY CONTROLLED BY THE NATIONAL WEATHER SERVICE. USE DATA WITH CAUTION...ESPECIALLY DEWPOINT OBSERVATIONS. SCZ027-030-031-034>040-042>050-221400- ...SOUTH CAROLINA... CITY SKY/WX TMP DP RH WIND PRES REMARKS N CHARLESTON MOSUNNY 85 77 77 NW3 30.04R HX 95 WATERFRONT PRK N/A 84 N/A N/A W3 N/A FORT JOHNSON NOT AVBL MOUNT PLEASANT FAIR 86 79 79 W5 30.04S HX 99 JOHNS ISLAND SUNNY 88 81 79 W3 30.05R HX 105 PINOPOLIS N/A 84 73 70 W7 29.97R HX 91 MONCKS CORNER N/A 82 77 83 CALM 30.04R HX 91 SUMMERVILLE FAIR 82 77 83 CALM 30.05S HX 91 BEAUFORT MCAS MOSUNNY 85 75 72 N3 30.04R HX 93 BEAUFORT ARPT FAIR 86 75 70 W5 30.04R HX 95 HILTON HEAD IS SUNNY 86 73 66 W5 30.05R HX 93 GEORGETOWN NOT AVBL WALTERBORO SUNNY 86 68 54 NW6 30.06R ORANGEBURG SUNNY 81 70 69 NW5 30.05R BARNWELL FAIR 82 72 69 W3 30.07R AIKEN FAIR 82 73 74 W5 30.10R MANNING FAIR 84 75 74 SW3 30.04S HX 92 KINGSTREE NOT AVBL COLUMBIA PTSUNNY 81 69 67 W3 30.04R SUMTER MOSUNNY 83 71 66 NW6 30.03R FLORENCE MOSUNNY 82 72 71 CALM 30.04R MYRTLE BEACH SUNNY 82 73 74 W8 30.03R N MYRTLE BEACH MOSUNNY 79 75 87 W3 30.03 $$ GAZ063-065-086>088-099>101-113>116-118-119-134-136>141-150-221400- ...GEORGIA... CITY SKY/WX TMP DP RH WIND PRES REMARKS SAVANNAH ARPT MOSUNNY 83 72 69 CALM 30.05R HUNTER AAF SUNNY 83 74 75 W2 30.03R FORT STEWART SUNNY 81 72 75 W3 30.04S STATESBORO NOT AVBL SYLVANIA SUNNY 83 76 80 NW3 30.07S HX 91 CLAXTON FAIR 82 77 83 CALM 30.06S HX 91 THOMSON SUNNY 82 78 86 W3 30.12S HX 91 AUGUSTA-BUSH SUNNY 82 71 69 N3 30.06R AUGUSTA-DANIEL SUNNY 84 71 65 NW8 30.08R SWAINSBORO FAIR 86 77 74 NW6 30.09R HX 97 VIDALIA N/A 84 73 70 CALM 30.08R HX 91 ALMA SUNNY 80 72 76 NW5 30.07R WAYCROSS SUNNY 84 76 75 CALM 30.07S HX 93 JESUP N/A 82 77 83 CALM 30.07R HX 91 BRUNSWICK SUNNY 82 72 69 W3 30.06F SAINT SIMONS SUNNY 81 73 76 W6 30.06R $$ SCZ027-028-034-036>038-045-046-048>050-GAZ119-141-221400- ...LAKE AND SUPPLEMENTAL COASTAL OBSERVATIONS... STATION/POSITION TIME TEMP WIND PRES WAVE SWELL AIR SEA DIR/SP/G HT/PER HT/PER/DIR (UTC) (F) (DEG/KT/KT) (MB) (FT/S) (FT/S/D) UPR LAKE MARION NOT AVBL WINYAH BAY 1300 82 280/ 4 1017.0S LAKE MURRAY 1300 80 290/ 3/ 5 1016.9S ACE BASIN NERRS 1300 82 CALM 1017.0S FORT PULASKI 1300 83 310/ 4/ 5 1017.7R SAPELO ISLAND 1300 81 270/ 3 1018.0S $$ ANZ835-935-AMZ111-154-330-350-352-354-374-450-454-472-221400- ...C-MAN AND BUOY OBSERVATIONS... STATION/POSITION TIME TEMP WIND PRES WAVE SWELL AIR SEA DIR/SP/G HT/PER HT/PER/DIR (UTC) (F) (DEG/KT/KT) (MB) (FT/S) (FT/S/D) FOLLY BEACH CMAN 1300 84 260/ 4/ 4 1017.7R BUOY 41004 1300 84 84 280/ 6/ 8 1016.7R 2/ 9 2/ 9 BUOY 41008 1300 84 85 270/ 6/ 8 1017.4R 1/ 3 5E ST. MARYS GA 1300 82 N/A 1/ 8 FRYING PAN BUOY NOT AVBL BUOY 41025 1300 81 270/ 12/ 14 1014.7F 2/ 8 2/ 60/ 8 CAPE LOOKOUT NC 1300 82 280/ 8/ 9 1015.9R BUOY 41002 1209 82 82 260/ 12/ 16 1017.9R 2/ 5 2/110/ 8 BUOY 41010 1300 84 86 230/ 8/ 10 1018.9R 2/ 6 2/140/ 6 BUOY 41012 NOT AVBL ST AUGUSTINE FL 1300 81 290/ 5/ 7 1019.3R CAPERS NEARSHORE 1200 85 280/ 6/ 8 N/A FRIPP NEARSHORE NOT AVBL $$

USA.gov is the U.S. government's official web portal to all federal, state and local government web resources and services.